Regional Weather Roundup
Issued by NWS

Home | Current Version | Previous Version | Text Only | Print | Product List | Glossary On
Versions: 1 2 3 4 5 6 7 8 9 10 11 12 13 14 15 16 17 18 19 20 21 22 23 24 25 26 27 28 29 30 31 32 33 34 35 36 37 38 39 40 41 42 43 44 45 46 47 48 49 50
000
ASUS44 KFWD 020015
RWRTX
NORTH TEXAS HOURLY WEATHER ROUNDUP
NATIONAL WEATHER SERVICE FORT WORTH TX
700 PM CDT FRI AUG 01 2014

NOTE: "FAIR" INDICATES FEW OR NO CLOUDS BELOW 12,000 FEET WITH NO
SIGNIFICANT WEATHER AND/OR OBSTRUCTIONS TO VISIBILITY.

TXZ118-119-020100-
DALLAS/FORT WORTH METROPLEX

CITY           SKY/WX    TMP DP  RH WIND       PRES   REMARKS
DFW AIRPORT    MOSUNNY   82  64  54 NE13      30.01F
6HR MIN TEMP:  77; 6HR MAX TEMP:  83;

DALLAS LOVE    PTSUNNY   79  66  64 E9        30.01F
6HR MIN TEMP:  76; 6HR MAX TEMP:  82;

FTW MEACHAM    SUNNY     83  65  54 NE13      30.00F
6HR MIN TEMP:  80; 6HR MAX TEMP:  86;

DAL-EXECUTIVE  MOSUNNY   80  65  59 NE12      30.01F
6HR MIN TEMP:  76; 6HR MAX TEMP:  82;

FTW-ALLIANCE   MOSUNNY   80  65  59 NE10      30.01F
6HR MIN TEMP:  78; 6HR MAX TEMP:  84;

FTW-NAS-JRB    PTSUNNY   83  63  50 NE13      30.04F
6HR MIN TEMP:  80; 6HR MAX TEMP:  87;

FTW-SPINKS     MOSUNNY   82  64  54 NE9       30.02F
ARLINGTON      PTSUNNY   80  64  58 NE10      30.01F
6HR MIN TEMP:  76; 6HR MAX TEMP:  82;

GRAND PRAIRIE  MOSUNNY   79  64  61 N9        30.03F
ADDISON        PTSUNNY   79  66  65 NE8       30.03F
MESQUITE       PTSUNNY   77  66  69 NE5       30.02F
LANCASTER      CLOUDY    76  65  67 NE6       30.02F
6HR MIN TEMP:  75; 6HR MAX TEMP:  80;

$$

TXZ091>094-102>105-117-120-121-131>134-020100-
NORTH CENTRAL TEXAS

CITY           SKY/WX    TMP DP  RH WIND       PRES   REMARKS
SHRMAN/DENISON PTSUNNY   77  66  69 E6        30.05S
6HR MIN TEMP:  74; 6HR MAX TEMP:  78;

GAINESVILLE    PTSUNNY   78  66  66 NE7       30.05F
6HR MIN TEMP:  76; 6HR MAX TEMP:  80;

BOWIE          SUNNY     79  66  63 CALM      30.04F
6HR MIN TEMP:  75; 6HR MAX TEMP:  82;

BRIDGEPORT     SUNNY     81  63  53 NE8       30.04F
6HR MIN TEMP:  77; 6HR MAX TEMP:  84;

DECATUR        MOSUNNY   80  62  54 NE8       30.04S
6HR MIN TEMP:  75; 6HR MAX TEMP:  82;

DENTON         PTSUNNY   80  65  59 NE10      30.02F
6HR MIN TEMP:  76; 6HR MAX TEMP:  82;

MCKINNEY       CLOUDY    76  67  73 NE7       30.02F
6HR MIN TEMP:  73; 6HR MAX TEMP:  79;

GREENVILLE     CLOUDY    73  66  78 N3        30.03S
ROCKWALL       CLOUDY    75  68  77 NE5       30.02F
6HR MIN TEMP:  72; 6HR MAX TEMP:  77;

TERRELL        CLOUDY    77  68  73 N8        30.02F
6HR MIN TEMP:  74; 6HR MAX TEMP:  80;

WAXAHACHIE     MOSUNNY   78  63  60 NE8       30.02F
6HR MIN TEMP:  75; 6HR MAX TEMP:  80;

CLEBURNE       MOSUNNY   81  68  65 NE10      30.02F
GRANBURY       MOSUNNY   83  64  50 NE6       30.02F
6HR MIN TEMP:  81; 6HR MAX TEMP:  87;

$$

TXZ083>090-098>101-113>116-127>130-139>142-154-155-020100-
WESTERN NORTH TEXAS

CITY           SKY/WX    TMP DP  RH WIND       PRES   REMARKS
WICHITA FALLS  PTSUNNY   82  66  58 SE7       30.02F
6HR MIN TEMP:  79; 6HR MAX TEMP:  84;

WF-KICKAPOO    MOSUNNY   82  63  53 SE3       30.04F
6HR MIN TEMP:  79; 6HR MAX TEMP:  83;

VERNON         MOSUNNY   84  60  45 E5        30.05F
ABILENE        MOSUNNY   89  55  31 NE6       30.03F
6HR MIN TEMP:  81; 6HR MAX TEMP:  90;

ABILENE-DYESS  SUNNY     87  56  34 VRB7      30.02F
6HR MIN TEMP:  79; 6HR MAX TEMP:  88;

BRECKENRIDGE   SUNNY     87  55  34 NE9       30.01F
6HR MIN TEMP:  81; 6HR MAX TEMP:  90;

GRAHAM         MOSUNNY   85  61  44 NE9       30.01F
6HR MIN TEMP:  79; 6HR MAX TEMP:  85;

MINERAL WELLS  MOSUNNY   83  62  49 NE9       30.01S
6HR MIN TEMP:  78; 6HR MAX TEMP:  86;

STEPHENVILLE   MOSUNNY   82  60  47 NE6       30.05F
6HR MIN TEMP:  79; 6HR MAX TEMP:  85;

COMANCHE       MOSUNNY   85  57  38 NE10      30.02S
6HR MIN TEMP:  81; 6HR MAX TEMP:  88;

BROWNWOOD      MOSUNNY   86  57  37 E8        30.01S
COLEMAN        SUNNY     87  53  31 E9        30.02F
6HR MIN TEMP:  80; 6HR MAX TEMP:  89;

BRADY          SUNNY     84  57  39 NE10      30.01F
$$

TXZ143>147-156>162-174-175-020100-
CENTRAL TEXAS

CITY           SKY/WX    TMP DP  RH WIND       PRES   REMARKS
WACO           CLOUDY    80  65  59 N10       30.00S
6HR MIN TEMP:  79; 6HR MAX TEMP:  84;

WACO-TSTC      CLOUDY    81  66  61 NE8       30.00S
WACO-MCGREGOR  CLOUDY    81  64  57 NE8       30.01S
6HR MIN TEMP:  77; 6HR MAX TEMP:  82;

HILLSBORO      CLOUDY    78  65  63 NE12      30.01S
6HR MIN TEMP:  76; 6HR MAX TEMP:  81;

CORSICANA      CLOUDY    77  66  68 NE9       30.02S
6HR MIN TEMP:  76; 6HR MAX TEMP:  83;

MEXIA          CLOUDY    76  68  77 E6        29.99F
6HR MIN TEMP:  75; 6HR MAX TEMP:  78;

HEARNE         CLOUDY    78  68  71 NE8       29.98F
6HR MIN TEMP:  78; 6HR MAX TEMP:  85;

CAMERON        CLOUDY    80  68  66 NE8       29.97F
6HR MIN TEMP:  80; 6HR MAX TEMP:  84;

TEMPLE         CLOUDY    81  63  54 N12       29.98F
6HR MIN TEMP:  81; 6HR MAX TEMP:  82;

KILLEEN        PTSUNNY   82  64  54 NE12      30.00F
KILLEEN-SKYLRK CLOUDY    81  63  54 N10       29.99F
6HR MIN TEMP:  79; 6HR MAX TEMP:  82;

FORT HOOD      CLOUDY    84  65  52 N6        30.00F
6HR MIN TEMP:  81; 6HR MAX TEMP:  86;

GATESVILLE     MOSUNNY   82  64  54 NE7       30.02F
HAMILTON       SUNNY     83  61  46 NE8G17    30.03S
6HR MIN TEMP:  79; 6HR MAX TEMP:  86;

LAMPASAS       MOSUNNY   83  66  55 NE9       30.00S
6HR MIN TEMP:  78; 6HR MAX TEMP:  84;

$$

TXZ095>097-106>112-122>126-135>138-148>153-164>167-020100-
EAST TEXAS

CITY           SKY/WX    TMP DP  RH WIND       PRES   REMARKS
PARIS          CLOUDY    73  64  73 NE6       30.03F
6HR MIN TEMP:  72; 6HR MAX TEMP:  75;

SULPHUR SPRNGS CLOUDY    74  67  77 NE8       30.04S
6HR MIN TEMP:  71; 6HR MAX TEMP:  77;

CLARKSVILLE    MOSUNNY   75  70  83 N3        30.02F
6HR MIN TEMP:  71; 6HR MAX TEMP:  78;

MOUNT PLEASANT CLOUDY    73  69  88 N6        30.03S
6HR MIN TEMP:  70; 6HR MAX TEMP:  75;

GILMER         CLOUDY    73  70  88 CALM      30.02S FOG
MINEOLA        CLOUDY    73  70  88 CALM      30.02S
TYLER          CLOUDY    73  66  78 N6        30.01R
6HR MIN TEMP:  72; 6HR MAX TEMP:  76;

LONGVIEW       CLOUDY    73  67  81 N5        29.99S
6HR MIN TEMP:  71; 6HR MAX TEMP:  74;

MARSHALL       CLOUDY    73  70  88 CALM      30.01S
6HR MIN TEMP:  73; 6HR MAX TEMP:  76;

ATHENS         CLOUDY    72  66  83 N7        30.00S
JACKSONVILLE   CLOUDY    72  68  88 N6        30.02S
HENDERSON      CLOUDY    71  69  94 CALM      30.00F
6HR MIN TEMP:  69; 6HR MAX TEMP:  72;

NACOGDOCHES    CLOUDY    72  68  88 N7        29.99S
6HR MIN TEMP:  72; 6HR MAX TEMP:  73;

LUFKIN         CLOUDY    75  68  78 N6        29.97F
6HR MIN TEMP:  75; 6HR MAX TEMP:  77;

$$

SUPPLEMENTAL OBSERVATIONS (CENTRAL)

CITY           SKY/WX    TMP DP  RH WIND       PRES   REMARKS
LAKE TEXOMA      N/A     75  68  78 E3          N/A
CADDO GRASSLND   N/A     75  68  78 NE1         N/A
PAT MAYSE LAKE   N/A     73  66  78 N2          N/A
ATHENS           N/A     73  66  78 CALM        N/A
PALESTINE        N/A     73  68  83 N5          N/A
LAKE LIMESTONE   N/A     75  73  94 E6          N/A
MCGREGOR         N/A     81  63  54 NE10        N/A
TEMPLE           N/A     81  64  57 N13         N/A
$$

SUPPLEMENTAL OBSERVATIONS (WEST)



USA.gov is the U.S. government's official web portal to all federal, state and local government web resources and services.